#timestamp,LO_Frequency,Hit,StdDev 
1581831095.3,286046992.2,P
1581831115.1,286046992.2,P
1581831135.9,286046992.2,P
1581831155.7,286046994.7,Y
1581831175.6,286046999.8,P
1581831195.4,286047000.0,N
1581831215.2,286047000.8,N
1581831235.1,286047000.4,N
1581831236.0,286047000.4,N
1581831255.8,286047000.5,N
1581831275.7,286047000.6,N
1581831295.5,286047000.0,N
1581831315.3,286046999.8,N
1581831335.2,286047000.1,N
1581831355.0,286047002.7,N
1581831355.9,286047002.7,N
1581831375.7,286047000.3,N
1581831395.6,286047000.1,N
1581831415.4,286046999.8,N
1581831435.3,286047000.2,N
1581831455.1,286047000.5,N
1581831456.0,286047000.5,N
1581831475.8,286047000.7,N
1581831495.7,286047002.7,N
1581831515.5,286047002.2,N
1581831535.3,286047002.7,N
1581831555.2,286047002.0,N
1581831575.0,286047001.6,N
1581831575.9,286047001.6,N
1581831595.8,286047001.5,N
1581831615.6,286047004.4,N
1581831635.4,286047001.9,N
1581831655.3,286047003.1,N
1581831675.1,286047003.4,N
1581831695.9,286047003.5,N
1581831715.7,286047002.9,N
1581831735.5,286047005.6,Y
1581831755.4,286047002.0,P
1581831775.2,286047001.8,P
1581831795.0,286047001.9,P
1581831795.9,286047001.9,Y
1581831815.8,286047001.1,P
1581831835.6,286046998.2,P
1581831855.5,286047000.4,N
1581831875.3,286047002.5,N
1581831895.1,286047004.4,N
1581831915.9,286047003.4,N
1581831935.7,286047003.0,N
1581831955.5,286047003.5,N
1581831975.4,286047002.9,N
1581831995.2,286047005.8,Y
1581832015.1,286047001.6,P
1581832016.0,286047001.6,P
1581832035.8,286047004.0,P
1581832055.6,286047004.0,Y
1581832075.5,286046999.9,P
1581832095.3,286047000.7,N
1581832115.2,286046999.0,N
1581832135.9,286047000.6,N
1581832155.7,286047001.2,N
1581832175.6,286047000.4,N
1581832195.4,286047000.0,N
1581832215.2,286047000.9,N
1581832235.1,286047000.2,N
1581832236.0,286047000.2,N
1581832255.8,286047002.6,Y
1581832275.7,286047000.1,P
1581832295.5,286047000.2,N
1581832315.3,286046999.9,N
1581832335.2,286046999.9,N
1581832355.0,286047001.6,Y
1581832355.9,286047001.6,P
1581832375.8,286047004.1,P
1581832395.6,286047002.3,N
1581832415.4,286047001.0,N
1581832435.3,286047000.8,N
1581832455.1,286047000.7,N
1581832475.8,286046999.4,N
1581832495.7,286046997.0,N
1581832515.5,286046995.0,N
1581832535.4,286046997.9,N
1581832555.2,286046995.1,N
1581832575.0,286046996.0,N
1581832575.9,286046996.0,N
1581832595.8,286046995.6,N
1581832615.6,286046997.6,N
1581832635.5,286046997.5,N
1581832655.3,286046997.6,N
1581832675.1,286046997.9,N
1581832695.9,286046994.9,N
1581832715.7,286046994.9,N
1581832735.5,286046998.0,N
1581832755.4,286046995.1,N
1581832775.2,286046995.2,N
1581832795.1,286046995.4,N
1581832796.0,286046995.4,N
